カタログに戻る

STARLINK-33969

運用中通信VLEO
NORAD 63855·PAYLOAD·🇺🇸 United States

打ち上げ May 7, 2025 から Cape Canaveral Space Force Station

Loading…

次のパス (今後24時間)

TLE

最新Source: CelesTrak SupGP

元期: Sep 14, 2026, 20:57 UTC

1 63855C 25093V   26257.87340278 -.00012726  00000+0 -46102-3 0  2579
2 63855  43.0031  89.4153 0001318 273.3911 173.1951 15.27578028    12

AllMySatでSTARLINK-33969をリアルタイム追跡

Download on the App Store